Delta, CO

6:04 PM MDT on July 27, 2017 (GMT -0600)
Delta

Weather History for KAJZ - January, 2013

Change the Weather History Date:

Tuesday, January 8, 2013

  Actual Average (KMTJ) Record (KMTJ)
Temperature  
Mean Temperature 16 °F -  
Max Temperature 32 °F 37 °F 48 °F (2002)
Min Temperature 1 °F 17 °F 0 °F (2013)
Degree Days  
Heating Degree Days 48    
Moisture  
Dew Point 7 °F    
Average Humidity 70    
Maximum Humidity 86    
Minimum Humidity 41    
Precipitation  
Precipitation 0.00 in - - ()
Sea Level Pressure  
Sea Level Pressure 30.22 in    
Wind  
Wind Speed 2 mph (ENE)    
Max Wind Speed 6 mph    
Max Gust Speed -    
Visibility 10 miles    
Events      
Averages and records for this station are not official NWS values.
T = Trace of Precipitation, MM = Missing Value Source: NWS Daily Summary

Daily Weather History Graph

Daily Weather History Graph

Search for Another Location

Airport or City:

Trip Planner

Search our weather history database for the weather conditions in past years. The results will help you decide how hot, cold, wet, or windy it might be!

Date:

Astronomy

Jan. 08, 2013 Rise Set
Actual Time 7:30 AM MST 5:07 PM MST
Civil Twilight 7:01 AM MST 5:37 PM MST
Nautical Twilight 6:28 AM MST 6:10 PM MST
Astronomical Twilight 5:55 AM MST 6:42 PM MST
Moon 4:07 AM MST (1/8) 2:12 PM MST (1/8)
Length of Visible Light 10h 36m
Length of Day
9h 37m
Waning Crescent, 13% of the Moon is Illuminated
Jan 8
Waning Crescent
Jan 11
New
Jan 18
First Quarter
Jan 26
Full
Feb 3
Last Quarter

Hourly Weather History & Observations

Time (MST) Temp. Windchill Dew Point Humidity Pressure Visibility Wind Dir Wind Speed Gust Speed Precip Events Conditions
12:15 AM 8.8 °F -1.1 °F 4.3 °F 82% 30.11 in 10.0 mi ENE 5.8 mph - N/A   Clear
12:35 AM 8.4 °F -1.6 °F 4.6 °F 85% 30.11 in 10.0 mi NE 5.8 mph - N/A   Clear
12:55 AM 10.4 °F 0.8 °F 5.9 °F 82% 30.11 in 10.0 mi East 5.8 mph - N/A   Clear
1:15 AM 10.0 °F 3.6 °F 5.5 °F 82% 30.11 in 10.0 mi East 3.5 mph - N/A   Scattered Clouds
1:35 AM 8.8 °F - 4.8 °F 84% 30.12 in 10.0 mi Calm Calm - N/A   Scattered Clouds
1:55 AM 8.1 °F - 3.7 °F 83% 30.11 in 10.0 mi Calm Calm - N/A   Clear
2:15 AM 6.8 °F - 2.5 °F 82% 30.13 in 10.0 mi Calm Calm - N/A   Clear
2:35 AM 6.3 °F - 1.9 °F 82% 30.13 in 10.0 mi Calm Calm - N/A   Clear
2:55 AM 6.6 °F -0.3 °F 2.7 °F 84% 30.13 in 10.0 mi NNW 3.5 mph - N/A   Clear
3:15 AM 7.3 °F -1.3 °F 3.2 °F 83% 30.13 in 10.0 mi North 4.6 mph - N/A   Clear
3:35 AM 7.3 °F -1.3 °F 3.0 °F 82% 30.12 in 10.0 mi NE 4.6 mph - N/A   Clear
3:55 AM 6.8 °F -2.0 °F 3.0 °F 84% 30.12 in 10.0 mi ENE 4.6 mph - N/A   Clear
4:15 AM 6.4 °F -2.4 °F 2.7 °F 84% 30.12 in 10.0 mi ENE 4.6 mph - N/A   Clear
4:35 AM 7.5 °F - 3.2 °F 82% 30.13 in 10.0 mi Calm Calm - N/A   Clear
4:55 AM 5.9 °F - 2.1 °F 84% 30.14 in 10.0 mi Calm Calm - N/A   Clear
5:15 AM 5.9 °F -3.0 °F 2.3 °F 85% 30.14 in 10.0 mi WNW 4.6 mph - N/A   Clear
5:35 AM 5.9 °F - 1.9 °F 84% 30.14 in 10.0 mi Calm Calm - N/A   Clear
5:55 AM 5.5 °F - 1.9 °F 85% 30.15 in 10.0 mi Calm Calm - N/A   Clear
6:35 AM 4.8 °F - 1.4 °F 86% 30.17 in 10.0 mi Calm Calm - N/A   Clear
6:55 AM 5.5 °F - 2.3 °F 86% 30.17 in 10.0 mi Calm Calm - N/A   Clear
7:15 AM 5.7 °F - 2.1 °F 85% 30.18 in 10.0 mi Calm Calm - N/A   Clear
7:35 AM 3.4 °F -5.9 °F -0.9 °F 82% 30.18 in 10.0 mi East 4.6 mph - N/A   Clear
7:55 AM 1.9 °F - -1.5 °F 86% 30.19 in 10.0 mi Calm Calm - N/A   Clear
8:15 AM 4.5 °F - 1.2 °F 86% 30.20 in 10.0 mi Calm Calm - N/A   Clear
8:35 AM 7.9 °F - 3.0 °F 81% 30.22 in 10.0 mi Calm Calm - N/A   Clear
8:55 AM 7.7 °F - 3.0 °F 81% 30.22 in 10.0 mi Calm Calm - N/A   Clear
9:15 AM 9.5 °F - 4.5 °F 80% 30.22 in 10.0 mi Calm Calm - N/A   Clear
9:35 AM 12.0 °F 4.1 °F 5.4 °F 75% 30.23 in 10.0 mi ENE 4.6 mph - N/A   Clear
9:55 AM 14.9 °F 9.2 °F 7.5 °F 73% 30.23 in 10.0 mi NNE 3.5 mph - N/A   Clear
10:15 AM 16.5 °F - 7.3 °F 67% 30.24 in 10.0 mi Calm Calm - N/A   Clear
10:35 AM 17.1 °F - 7.7 °F 67% 30.25 in 10.0 mi Calm Calm - N/A   Clear
10:55 AM 18.5 °F - 9.0 °F 66% 30.25 in 10.0 mi Calm Calm - N/A   Clear
11:15 AM 19.4 °F - 9.3 °F 65% 30.25 in 10.0 mi Calm Calm - N/A   Clear
11:35 AM 22.1 °F - 9.9 °F 59% 30.24 in 10.0 mi Calm Calm - N/A   Clear
12:15 PM 25.0 °F 20.7 °F 10.4 °F 54% 30.22 in 10.0 mi East 3.5 mph - N/A   Clear
12:35 PM 25.9 °F 21.7 °F 10.0 °F 51% 30.22 in 10.0 mi East 3.5 mph - N/A   Clear
12:55 PM 26.6 °F - 10.6 °F 51% 30.21 in 10.0 mi Calm Calm - N/A   Clear
1:15 PM 28.4 °F - 11.7 °F 50% 30.21 in 10.0 mi Calm Calm - N/A   Clear
1:35 PM 28.8 °F - 12.6 °F 51% 30.21 in 10.0 mi Calm Calm - N/A   Clear
1:55 PM 28.4 °F - 11.8 °F 50% 30.21 in 10.0 mi Calm Calm - N/A   Clear
2:15 PM 30.6 °F - 12.7 °F 48% 30.21 in 10.0 mi Calm Calm - N/A   Clear
2:35 PM 31.6 °F - 12.2 °F 45% 30.21 in 10.0 mi Calm Calm - N/A   Clear
2:55 PM 31.5 °F - 13.8 °F 48% 30.22 in 10.0 mi Calm Calm - N/A   Clear
3:15 PM 32.4 °F - 12.4 °F 44% 30.23 in 10.0 mi Calm Calm - N/A   Clear
3:35 PM 32.9 °F - 11.7 °F 41% 30.23 in 10.0 mi Calm Calm - N/A   Clear
3:55 PM 32.0 °F - 14.4 °F 48% 30.24 in 10.0 mi Calm Calm - N/A   Clear
4:15 PM 31.8 °F - 13.6 °F 47% 30.24 in 10.0 mi Calm Calm - N/A   Clear
4:35 PM 30.7 °F 27.3 °F 13.6 °F 49% 30.25 in 10.0 mi ENE 3.5 mph - N/A   Clear
4:55 PM 28.8 °F 23.7 °F 13.5 °F 53% 30.25 in 10.0 mi East 4.6 mph - N/A   Clear
5:35 PM 24.1 °F 19.7 °F 12.4 °F 61% 30.28 in 10.0 mi East 3.5 mph - N/A   Clear
5:55 PM 21.9 °F 17.2 °F 11.8 °F 65% 30.29 in 10.0 mi NNE 3.5 mph - N/A   Clear
6:15 PM 23.9 °F - 11.7 °F 60% 30.29 in 10.0 mi Calm Calm - N/A   Clear
6:55 PM 24.8 °F - 12.0 °F 58% 30.31 in 10.0 mi Calm Calm - N/A   Clear
7:15 PM 25.2 °F - 11.5 °F 56% 30.32 in 10.0 mi Calm Calm - N/A   Clear
7:35 PM 19.6 °F - 10.0 °F 66% 30.33 in 10.0 mi Calm Calm - N/A   Clear
7:55 PM 19.2 °F - 10.0 °F 67% 30.35 in 10.0 mi Calm Calm - N/A   Clear
8:15 PM 20.3 °F 15.4 °F 10.4 °F 66% 30.35 in 10.0 mi North 3.5 mph - N/A   Clear
8:35 PM 16.7 °F - 8.6 °F 70% 30.36 in 10.0 mi Calm Calm - N/A   Clear
8:55 PM 17.1 °F - 9.5 °F 72% 30.37 in 10.0 mi Calm Calm - N/A   Clear
9:15 PM 15.1 °F 7.7 °F 8.6 °F 76% 30.38 in 10.0 mi East 4.6 mph - N/A   Clear
9:35 PM 14.4 °F 6.9 °F 9.0 °F 79% 30.38 in 10.0 mi ENE 4.6 mph - N/A   Clear
11:15 PM 13.6 °F - 8.8 °F 81% 30.41 in 10.0 mi Calm Calm - N/A   Clear
11:35 PM 13.3 °F - 8.4 °F 81% 30.42 in 10.0 mi Calm Calm - N/A   Clear
11:55 PM 13.8 °F - 7.9 °F 77% 30.43 in 10.0 mi Calm Calm - N/A   Clear